EZY87AX EGKK-LEPA

Flight info

Callsign EZY87AX
Flight time N/A
Altitude 33000
Route SFD Y47 DRAKE L151 SITET UN859 SOPIL DCT BALAN DCT EVPOK DCT NARAK DCT GAI DCT LOMRA DCT ROCAN DCT IBRAP DCT LUKEV DCT LORES
Aircraft A320/M-SDE2E3FGHIJ1RWXYZ/LB1

Departure

Time 2026-05-05 19:57
Airport London Gatwick Airport (EGKK)

Arrival

Time N/A
Airport Palma de Mallorca Airport (LEPA)
Time Latitude Longitude Altitude Speed Heading
2026-05-05 19:42 51.15565 -0.17816 209 ft 0 kts 348°
2026-05-05 19:45 51.15559 -0.17814 216 ft 3 kts 348°
2026-05-05 19:45 51.15549 -0.17811 216 ft 2 kts 348°
2026-05-05 19:45 51.15527 -0.17803 214 ft 1 kts 348°
2026-05-05 19:45 51.15508 -0.17794 209 ft 3 kts 311°
2026-05-05 19:46 51.15503 -0.17766 215 ft 2 kts 258°
2026-05-05 19:46 51.15507 -0.17739 214 ft 0 kts 258°
2026-05-05 19:48 51.15506 -0.17746 213 ft 2 kts 258°
2026-05-05 19:48 51.15499 -0.17795 213 ft 7 kts 257°
2026-05-05 19:49 51.15485 -0.17892 211 ft 11 kts 257°
2026-05-05 19:49 51.15469 -0.18006 208 ft 5 kts 258°
2026-05-05 19:49 51.15463 -0.18049 206 ft 4 kts 257°
2026-05-05 19:49 51.15458 -0.18091 207 ft 4 kts 258°
2026-05-05 19:50 51.15444 -0.18193 210 ft 15 kts 258°
2026-05-05 19:50 51.15371 -0.18269 212 ft 15 kts 170°
2026-05-05 19:50 51.15264 -0.18231 209 ft 16 kts 167°
2026-05-05 19:50 51.15187 -0.18302 215 ft 15 kts 265°
2026-05-05 19:51 51.15166 -0.18472 207 ft 18 kts 259°
2026-05-05 19:51 51.15139 -0.18669 208 ft 18 kts 257°
2026-05-05 19:51 51.15112 -0.18863 213 ft 19 kts 257°
2026-05-05 19:51 51.15084 -0.19056 212 ft 17 kts 257°
2026-05-05 19:52 51.15057 -0.19235 216 ft 16 kts 244°
2026-05-05 19:52 51.14997 -0.19262 209 ft 7 kts 173°
2026-05-05 19:52 51.14958 -0.19308 207 ft 12 kts 250°
2026-05-05 19:52 51.14931 -0.19503 207 ft 23 kts 257°
2026-05-05 19:53 51.14895 -0.19767 214 ft 25 kts 257°
2026-05-05 19:53 51.14857 -0.20051 203 ft 27 kts 258°
2026-05-05 19:53 51.14815 -0.20360 202 ft 29 kts 258°
2026-05-05 19:53 51.14778 -0.20614 207 ft 18 kts 257°
2026-05-05 19:54 51.14688 -0.20711 204 ft 16 kts 172°
2026-05-05 19:54 51.14598 -0.20666 209 ft 9 kts 145°
2026-05-05 19:54 51.14597 -0.20608 217 ft 0 kts 78°
2026-05-05 19:56 51.14605 -0.20549 208 ft 25 kts 78°
2026-05-05 19:56 51.14695 -0.19890 205 ft 95 kts 77°
2026-05-05 19:56 51.14881 -0.18542 206 ft 149 kts 78°
2026-05-05 19:56 51.15119 -0.16851 700 ft 155 kts 77°
2026-05-05 19:57 51.15350 -0.15169 1377 ft 159 kts 78°
2026-05-05 19:57 51.15601 -0.13346 1749 ft 179 kts 77°
2026-05-05 19:57 51.15885 -0.11279 2033 ft 203 kts 77°
2026-05-05 19:57 51.16196 -0.08973 2541 ft 220 kts 80°
2026-05-05 19:58 51.16014 -0.06546 3300 ft 229 kts 117°
2026-05-05 19:58 51.14854 -0.04674 3802 ft 255 kts 152°
2026-05-05 19:58 51.13114 -0.03717 3984 ft 270 kts 167°
2026-05-05 19:58 51.11240 -0.03245 4092 ft 278 kts 173°
2026-05-05 19:59 51.09309 -0.02906 5025 ft 279 kts 173°
2026-05-05 19:59 51.07367 -0.02559 5715 ft 283 kts 171°
2026-05-05 19:59 51.05439 -0.01924 5942 ft 283 kts 164°
2026-05-05 19:59 51.03552 -0.01051 6006 ft 282 kts 161°
2026-05-05 20:00 51.01705 -0.00102 6011 ft 283 kts 161°
2026-05-05 20:00 50.99829 0.00878 6044 ft 284 kts 161°
2026-05-05 20:00 50.97945 0.01844 6039 ft 285 kts 161°
2026-05-05 20:00 50.96058 0.02782 6042 ft 285 kts 162°
2026-05-05 20:01 50.94165 0.03700 6028 ft 285 kts 162°
2026-05-05 20:01 50.92254 0.04613 6524 ft 287 kts 162°
2026-05-05 20:01 50.90374 0.05499 7696 ft 272 kts 163°
2026-05-05 20:01 50.88600 0.06328 8881 ft 263 kts 163°
2026-05-05 20:02 50.86848 0.07146 9757 ft 264 kts 163°
2026-05-05 20:02 50.85081 0.07970 10506 ft 265 kts 163°
2026-05-05 20:02 50.83266 0.08819 10962 ft 282 kts 163°
2026-05-05 20:02 50.81321 0.09731 11335 ft 299 kts 163°
2026-05-05 20:03 50.79301 0.10679 11966 ft 306 kts 162°
2026-05-05 20:03 50.77244 0.11514 12709 ft 309 kts 170°
2026-05-05 20:03 50.75086 0.11694 13344 ft 318 kts 183°
2026-05-05 20:03 50.72836 0.11088 13510 ft 340 kts 193°
2026-05-05 20:04 50.70480 0.10216 13876 ft 353 kts 193°
2026-05-05 20:04 50.68069 0.09316 14414 ft 358 kts 193°
2026-05-05 20:04 50.65630 0.08412 15026 ft 362 kts 193°
2026-05-05 20:04 50.63168 0.07509 15643 ft 365 kts 192°
2026-05-05 20:05 50.60682 0.06608 16229 ft 369 kts 192°
2026-05-05 20:05 50.58165 0.05703 16817 ft 373 kts 192°
2026-05-05 20:05 50.55621 0.04791 17420 ft 376 kts 192°
2026-05-05 20:05 50.53056 0.03869 18025 ft 380 kts 192°